Powrót do katalogu

FENGYUN 1C DEB

AktywnySSO
NORAD 31179·DEBRIS·🇨🇳 China

Wystrzelony May 10, 1999 z Taiyuan Satellite Launch Center

Loading…

Następne Przeloty (najbliższe 24 godziny)

TLE

ŚwieżeSource: Space-Track

Epoka: Sep 14, 2026, 18:53 UTC

1 31179U 99025BJH 26257.78727792  .00000827  00000-0  56002-3 0  9990
2 31179  99.0044 275.3414 0213407 327.4974  31.3193 13.92635326657826

Śledź FENGYUN 1C DEB w czasie rzeczywistym z AllMySat

Download on the App Store